Weather History for Racine, WI

Change the Weather History Date:

Saturday, January 19, 2013

  Actual Average Record
Temperature  
Mean Temperature 38 °F -  
Max Temperature 43 °F 27 °F 46 °F (1973)
Min Temperature 21 °F 11 °F -14 °F (1970)
Degree Days  
Heating Degree Days 26    
Moisture  
Dew Point 29 °F    
Average Humidity 66    
Maximum Humidity 73    
Minimum Humidity 42    
Precipitation  
Precipitation 0.00 in - - ()
Sea Level Pressure  
Sea Level Pressure 29.78 in    
Wind  
Wind Speed 15 mph (WSW)    
Max Wind Speed 28 mph    
Max Gust Speed 40 mph    
Visibility 10 miles    
Events      
Averages and records for this station are not official NWS values.
T = Trace of Precipitation, MM = Missing Value Source: NWS Daily Summary

Daily Weather History Graph

Daily Weather History Graph

Search for Another Location

Airport:

Trip Planner

Search our weather history database for the weather conditions in past years. The results will help you decide how hot, cold, wet, or windy it might be!

Date:

Astronomy

Jan. 19, 2013 Rise Set
Actual Time 7:16 AM CST 4:48 PM CST
Civil Twilight 6:45 AM CST 5:18 PM CST
Nautical Twilight 6:11 AM CST 5:53 PM CST
Astronomical Twilight 5:37 AM CST 6:27 PM CST
Moon 11:15 AM CST (1/19) 12:48 AM CST (1/19)
Length of Visible Light 10h 33m
Length of Day
9h 31m
First Quarter, 57% of the Moon is Illuminated
Jan 19
First Quarter
Jan 26
Full
Feb 3
Last Quarter
Feb 10
New
Feb 17
First Quarter

Hourly Weather History & Observations

Time (CST) Temp. Windchill Dew Point Humidity Pressure Visibility Wind Dir Wind Speed Gust Speed Precip Events Conditions
12:53 AM 39.9 °F 32.5 °F 28.9 °F 65% 29.87 in 10.0 mi WSW 12.7 mph 25.3 mph N/A   Clear
1:53 AM 39.0 °F 31.4 °F 28.9 °F 67% 29.88 in 10.0 mi WSW 12.7 mph 24.2 mph N/A   Clear
2:53 AM 39.0 °F 31.4 °F 30.0 °F 70% 29.88 in 10.0 mi WSW 12.7 mph 23.0 mph N/A   Clear
3:53 AM 39.0 °F 30.3 °F 30.0 °F 70% 29.85 in 10.0 mi WSW 16.1 mph 23.0 mph N/A   Clear
4:53 AM 39.0 °F 31.0 °F 30.0 °F 70% 29.86 in 10.0 mi WSW 13.8 mph 24.2 mph N/A   Overcast
5:53 AM 39.0 °F 31.4 °F 30.9 °F 73% 29.85 in 10.0 mi WSW 12.7 mph 23.0 mph N/A   Mostly Cloudy
6:53 AM 39.0 °F 31.0 °F 30.9 °F 73% 29.85 in 10.0 mi WSW 13.8 mph 20.7 mph N/A   Overcast
7:53 AM 39.0 °F 31.0 °F 30.9 °F 73% 29.86 in 10.0 mi WSW 13.8 mph 19.6 mph N/A   Overcast
8:53 AM 39.9 °F 32.9 °F 30.9 °F 70% 29.85 in 10.0 mi SW 11.5 mph - N/A   Overcast
9:53 AM 41.0 °F 33.1 °F 30.9 °F 67% 29.82 in 10.0 mi SW 15.0 mph 21.9 mph N/A   Mostly Cloudy
10:53 AM 42.1 °F 33.6 °F 30.9 °F 65% 29.79 in 10.0 mi SW 18.4 mph 24.2 mph N/A   Mostly Cloudy
11:53 AM 42.1 °F 33.1 °F 32.0 °F 67% 29.75 in 10.0 mi SW 20.7 mph 25.3 mph N/A   Scattered Clouds
12:53 PM 42.1 °F 35.7 °F 32.0 °F 67% 29.71 in 10.0 mi WSW 11.5 mph 21.9 mph N/A   Mostly Cloudy
1:53 PM 43.0 °F 35.4 °F 33.1 °F 68% 29.69 in 10.0 mi WSW 16.1 mph 26.5 mph N/A   Overcast
2:53 PM 43.0 °F 36.0 °F 33.1 °F 68% 29.68 in 10.0 mi WSW 13.8 mph 25.3 mph N/A   Scattered Clouds
3:53 PM 43.0 °F 36.0 °F 34.0 °F 71% 29.67 in 10.0 mi WSW 13.8 mph 21.9 mph N/A   Clear
4:53 PM 42.1 °F 35.2 °F 33.1 °F 70% 29.69 in 10.0 mi WSW 12.7 mph - N/A   Scattered Clouds
5:53 PM 43.0 °F 35.4 °F 33.1 °F 68% 29.70 in 10.0 mi WSW 16.1 mph 26.5 mph N/A   Mostly Cloudy
6:53 PM 42.1 °F 34.9 °F 32.0 °F 67% 29.69 in 10.0 mi WSW 13.8 mph 21.9 mph N/A   Clear
7:53 PM 42.1 °F 33.3 °F 30.0 °F 62% 29.69 in 10.0 mi West 19.6 mph 28.8 mph N/A   Partly Cloudy
8:53 PM 39.9 °F 31.1 °F 21.0 °F 47% 29.69 in 10.0 mi West 17.3 mph 34.5 mph N/A   Partly Cloudy
9:53 PM 34.0 °F 20.8 °F 12.9 °F 42% 29.74 in 10.0 mi West 27.6 mph 40.3 mph N/A   Clear
11:53 PM 21.0 °F 5.0 °F 5.0 °F 50% 29.89 in 10.0 mi WNW 21.9 mph 38.0 mph N/A   Clear